DLH8HY EKCH-EDDM

Flight info

Callsign DLH8HY
Flight time 1h 15m
Altitude 37000
Route SALLO1A SALLO M44 KOGIM DCT MAREM/N0443F340 DCT VESUB T106 TUSTO T108 LANDU LANDU2B
Aircraft A320/M-VGDW/C

Departure

Time 2026-05-05 15:19
Airport Copenhagen Kastrup Airport (EKCH)

Arrival

Time 2026-05-05 16:35
Airport Munich Airport (EDDM)
Time Latitude Longitude Altitude Speed Heading
2026-05-05 14:38 55.62723 12.64094 29 ft 0 kts 33°
2026-05-05 15:10 55.62716 12.64086 25 ft 3 kts 34°
2026-05-05 15:10 55.62700 12.64066 25 ft 3 kts 40°
2026-05-05 15:10 55.62685 12.64042 26 ft 3 kts 53°
2026-05-05 15:10 55.62676 12.64013 24 ft 3 kts 88°
2026-05-05 15:11 55.62678 12.63993 24 ft 1 kts 123°
2026-05-05 15:11 55.62678 12.63992 24 ft 0 kts 123°
2026-05-05 15:13 55.62678 12.63994 24 ft 2 kts 123°
2026-05-05 15:13 55.62643 12.64087 24 ft 15 kts 123°
2026-05-05 15:13 55.62588 12.64236 24 ft 14 kts 123°
2026-05-05 15:13 55.62538 12.64371 25 ft 14 kts 123°
2026-05-05 15:14 55.62486 12.64480 24 ft 10 kts 155°
2026-05-05 15:14 55.62386 12.64446 24 ft 17 kts 195°
2026-05-05 15:14 55.62278 12.64397 22 ft 16 kts 189°
2026-05-05 15:14 55.62168 12.64419 25 ft 16 kts 169°
2026-05-05 15:15 55.62054 12.64457 24 ft 22 kts 169°
2026-05-05 15:15 55.61886 12.64513 25 ft 23 kts 169°
2026-05-05 15:15 55.61747 12.64560 24 ft 16 kts 169°
2026-05-05 15:15 55.61647 12.64533 24 ft 14 kts 214°
2026-05-05 15:16 55.61535 12.64404 24 ft 27 kts 212°
2026-05-05 15:16 55.61364 12.64206 26 ft 29 kts 213°
2026-05-05 15:16 55.61191 12.64008 24 ft 29 kts 213°
2026-05-05 15:16 55.61019 12.63810 26 ft 30 kts 213°
2026-05-05 15:17 55.60856 12.63622 24 ft 25 kts 213°
2026-05-05 15:17 55.60714 12.63461 26 ft 19 kts 212°
2026-05-05 15:17 55.60610 12.63321 24 ft 20 kts 221°
2026-05-05 15:17 55.60506 12.63159 24 ft 17 kts 221°
2026-05-05 15:18 55.60425 12.63128 24 ft 12 kts 154°
2026-05-05 15:18 55.60373 12.63220 24 ft 11 kts 130°
2026-05-05 15:18 55.60336 12.63304 30 ft 5 kts 119°
2026-05-05 15:18 55.60340 12.63343 26 ft 2 kts 57°
2026-05-05 15:19 55.60417 12.63466 28 ft 43 kts 40°
2026-05-05 15:19 55.60835 12.64112 30 ft 113 kts 41°
2026-05-05 15:19 55.61557 12.65227 74 ft 158 kts 40°
2026-05-05 15:19 55.62386 12.66525 806 ft 158 kts 40°
2026-05-05 15:20 55.63201 12.67848 1606 ft 160 kts 40°
2026-05-05 15:20 55.64027 12.69251 2192 ft 174 kts 42°
2026-05-05 15:20 55.64908 12.70843 2704 ft 187 kts 44°
2026-05-05 15:20 55.65767 12.72669 3248 ft 201 kts 56°
2026-05-05 15:21 55.66279 12.75109 3789 ft 225 kts 77°
2026-05-05 15:21 55.66236 12.78042 4316 ft 254 kts 100°
2026-05-05 15:21 55.65455 12.81003 4887 ft 281 kts 127°
2026-05-05 15:21 55.63899 12.83207 5660 ft 294 kts 155°
2026-05-05 15:22 55.61949 12.84417 6522 ft 300 kts 164°
2026-05-05 15:22 55.59979 12.85557 7657 ft 292 kts 161°
2026-05-05 15:22 55.58109 12.86910 8805 ft 290 kts 159°
2026-05-05 15:22 55.56258 12.88385 9759 ft 293 kts 159°
2026-05-05 15:23 55.54375 12.89928 10343 ft 309 kts 159°
2026-05-05 15:23 55.53049 12.91008 10526 ft 325 kts 159°
2026-05-05 15:23 55.50923 12.92722 10872 ft 344 kts 159°
2026-05-05 15:23 55.48714 12.94490 11543 ft 352 kts 159°
2026-05-05 15:24 55.46479 12.96268 12303 ft 356 kts 160°
2026-05-05 15:24 55.44204 12.98067 13065 ft 360 kts 160°
2026-05-05 15:24 55.41901 12.99875 13823 ft 365 kts 161°
2026-05-05 15:24 55.39568 13.01695 14500 ft 368 kts 161°
2026-05-05 15:25 55.37215 13.03526 15191 ft 372 kts 161°
2026-05-05 15:25 55.34837 13.05369 15878 ft 375 kts 161°
2026-05-05 15:25 55.32443 13.07227 16553 ft 378 kts 161°
2026-05-05 15:25 55.30018 13.09112 17216 ft 382 kts 161°
2026-05-05 15:26 55.27576 13.11009 17874 ft 385 kts 161°
2026-05-05 15:26 55.25113 13.12922 18479 ft 388 kts 161°
2026-05-05 15:26 55.22634 13.14848 19031 ft 392 kts 161°
2026-05-05 15:26 55.20136 13.16785 19578 ft 395 kts 161°
2026-05-05 15:27 55.17612 13.18737 20121 ft 398 kts 161°
2026-05-05 15:27 55.15065 13.20698 20658 ft 401 kts 161°
2026-05-05 15:27 55.12506 13.22663 21188 ft 404 kts 161°
2026-05-05 15:27 55.09916 13.24650 21705 ft 408 kts 161°
2026-05-05 15:28 55.07308 13.26650 22203 ft 411 kts 161°
2026-05-05 15:28 55.04713 13.28639 22681 ft 414 kts 161°
2026-05-05 15:28 55.02064 13.30670 23192 ft 417 kts 161°
2026-05-05 15:28 54.99402 13.32707 23649 ft 420 kts 161°
2026-05-05 15:29 54.96719 13.34755 24068 ft 423 kts 161°
2026-05-05 15:29 54.94016 13.36818 24488 ft 425 kts 161°
2026-05-05 15:29 54.91243 13.38551 24892 ft 422 kts 170°
2026-05-05 15:29 54.88377 13.39521 25290 ft 420 kts 176°
2026-05-05 15:30 54.85478 13.40287 25694 ft 422 kts 176°
2026-05-05 15:30 54.82571 13.41057 26087 ft 424 kts 176°
2026-05-05 15:30 54.79641 13.41839 26493 ft 426 kts 176°
2026-05-05 15:30 54.76699 13.42629 26861 ft 428 kts 176°
2026-05-05 15:31 54.73751 13.43420 27291 ft 430 kts 177°
2026-05-05 15:31 54.70791 13.44216 27692 ft 431 kts 177°
2026-05-05 15:31 54.67821 13.45015 28074 ft 434 kts 177°
2026-05-05 15:31 54.64835 13.45816 28445 ft 436 kts 177°
2026-05-05 15:32 54.61829 13.46618 28792 ft 438 kts 177°
2026-05-05 15:32 54.58810 13.47425 29132 ft 440 kts 177°
2026-05-05 15:32 54.55781 13.48236 29465 ft 442 kts 177°
2026-05-05 15:32 54.52733 13.49047 29797 ft 444 kts 177°
2026-05-05 15:33 54.49676 13.49859 30069 ft 445 kts 178°
2026-05-05 15:33 54.46611 13.50655 30415 ft 445 kts 179°
2026-05-05 15:33 54.43553 13.51428 30756 ft 444 kts 179°
2026-05-05 15:33 54.40493 13.52192 31142 ft 443 kts 179°
2026-05-05 15:34 54.37450 13.52950 31513 ft 442 kts 179°
2026-05-05 15:34 54.34402 13.53706 31885 ft 442 kts 179°
2026-05-05 15:34 54.31359 13.54354 32249 ft 437 kts 184°
2026-05-05 15:34 54.28331 13.54482 32583 ft 434 kts 186°
2026-05-05 15:35 54.25314 13.54560 32935 ft 434 kts 186°
2026-05-05 15:35 54.22293 13.54637 33254 ft 433 kts 186°
2026-05-05 15:35 54.19318 13.54708 33623 ft 433 kts 186°
2026-05-05 15:35 54.16310 13.54777 33969 ft 432 kts 186°
2026-05-05 15:36 54.13258 13.54850 34270 ft 432 kts 186°
2026-05-05 15:36 54.10289 13.54928 34557 ft 433 kts 186°
2026-05-05 15:36 54.07276 13.55010 34840 ft 433 kts 186°
2026-05-05 15:36 54.04262 13.55092 35120 ft 433 kts 186°
2026-05-05 15:37 54.01253 13.55172 35391 ft 433 kts 186°
2026-05-05 15:37 53.98239 13.55246 35632 ft 433 kts 186°
2026-05-05 15:37 53.95229 13.55315 35934 ft 431 kts 185°
2026-05-05 15:37 53.92235 13.55383 36242 ft 431 kts 185°
2026-05-05 15:38 53.89239 13.55456 36514 ft 430 kts 185°
2026-05-05 15:38 53.86251 13.55535 36762 ft 430 kts 185°
2026-05-05 15:38 53.83258 13.55613 36893 ft 431 kts 185°
2026-05-05 15:39 53.77264 13.55766 36909 ft 430 kts 185°
2026-05-05 15:39 53.71282 13.55914 36895 ft 429 kts 185°
2026-05-05 15:40 53.65315 13.56059 36906 ft 429 kts 185°
2026-05-05 15:40 53.59347 13.56217 36903 ft 429 kts 185°
2026-05-05 15:41 53.53377 13.56371 36900 ft 429 kts 185°
2026-05-05 15:41 53.47407 13.56510 36878 ft 429 kts 185°
2026-05-05 15:42 53.41472 13.56648 36873 ft 430 kts 185°
2026-05-05 15:42 53.35485 13.56798 36877 ft 430 kts 184°
2026-05-05 15:43 53.29497 13.56949 36877 ft 431 kts 185°
2026-05-05 15:43 53.23494 13.57092 36881 ft 431 kts 185°
2026-05-05 15:44 53.17496 13.57239 36854 ft 431 kts 185°
2026-05-05 15:44 53.11489 13.57388 36860 ft 432 kts 185°
2026-05-05 15:45 53.05478 13.57539 36865 ft 432 kts 185°
2026-05-05 15:45 52.99463 13.57688 36870 ft 432 kts 185°
2026-05-05 15:46 52.93440 13.57825 36850 ft 432 kts 185°
2026-05-05 15:46 52.87430 13.57959 36866 ft 432 kts 185°
2026-05-05 15:47 52.81406 13.58106 36874 ft 432 kts 185°
2026-05-05 15:47 52.75398 13.58251 36874 ft 432 kts 185°
2026-05-05 15:48 52.69429 13.58398 36875 ft 432 kts 185°
2026-05-05 15:48 52.63423 13.58539 36870 ft 432 kts 185°
2026-05-05 15:49 52.57409 13.58674 36874 ft 432 kts 185°
2026-05-05 15:49 52.51405 13.58810 36858 ft 432 kts 185°
2026-05-05 15:50 52.45395 13.58956 36852 ft 431 kts 184°
2026-05-05 15:50 52.39399 13.59097 36868 ft 430 kts 184°
2026-05-05 15:51 52.33454 13.59234 36879 ft 430 kts 184°
2026-05-05 15:51 52.27438 13.59379 36880 ft 429 kts 184°
2026-05-05 15:52 52.21465 13.59523 36864 ft 429 kts 184°
2026-05-05 15:52 52.15537 13.59659 36868 ft 428 kts 184°
2026-05-05 15:53 52.09592 13.59795 36865 ft 427 kts 184°
2026-05-05 15:53 52.03645 13.59936 36860 ft 427 kts 184°
2026-05-05 15:54 51.97717 13.60071 36846 ft 426 kts 184°
2026-05-05 15:54 51.91782 13.60202 36850 ft 426 kts 184°
2026-05-05 15:55 51.85870 13.60338 36850 ft 425 kts 184°
2026-05-05 15:55 51.79962 13.60474 36852 ft 424 kts 184°
2026-05-05 15:56 51.74058 13.60606 36849 ft 424 kts 184°
2026-05-05 15:56 51.68157 13.60741 36834 ft 424 kts 184°
2026-05-05 15:57 51.62259 13.60882 36838 ft 423 kts 184°
2026-05-05 15:57 51.56373 13.61015 36823 ft 423 kts 184°
2026-05-05 15:58 51.50472 13.61152 36814 ft 424 kts 184°
2026-05-05 15:58 51.44569 13.61280 36802 ft 425 kts 184°
2026-05-05 15:59 51.38689 13.61408 36804 ft 425 kts 184°
2026-05-05 15:59 51.32768 13.61544 36819 ft 426 kts 184°
2026-05-05 16:00 51.26836 13.61668 36826 ft 426 kts 184°
2026-05-05 16:00 51.20908 13.61800 36830 ft 426 kts 183°
2026-05-05 16:01 51.14995 13.61934 36848 ft 425 kts 183°
2026-05-05 16:01 51.09069 13.62070 36844 ft 425 kts 183°
2026-05-05 16:02 51.03151 13.62207 36841 ft 425 kts 183°
2026-05-05 16:02 50.97258 13.62334 36833 ft 425 kts 183°
2026-05-05 16:03 50.91343 13.62457 36830 ft 425 kts 183°
2026-05-05 16:03 50.85433 13.62590 36827 ft 425 kts 183°
2026-05-05 16:04 50.79522 13.62727 36816 ft 425 kts 183°
2026-05-05 16:04 50.73620 13.62815 36806 ft 423 kts 186°
2026-05-05 16:05 50.67910 13.61081 36800 ft 416 kts 200°
2026-05-05 16:05 50.62427 13.58305 36803 ft 417 kts 200°
2026-05-05 16:06 50.56894 13.55555 36798 ft 417 kts 200°
2026-05-05 16:06 50.51362 13.52817 36776 ft 417 kts 200°
2026-05-05 16:07 50.45818 13.50073 36778 ft 418 kts 200°
2026-05-05 16:07 50.40272 13.47327 36784 ft 418 kts 200°
2026-05-05 16:08 50.34724 13.44577 36781 ft 419 kts 200°
2026-05-05 16:08 50.29168 13.41838 36780 ft 419 kts 200°
2026-05-05 16:09 50.23606 13.39102 36781 ft 419 kts 200°
2026-05-05 16:09 50.18051 13.36387 36781 ft 419 kts 200°
2026-05-05 16:10 50.12481 13.33672 36655 ft 419 kts 200°
2026-05-05 16:10 50.10643 13.32776 36240 ft 418 kts 200°
2026-05-05 16:10 50.07870 13.31423 35549 ft 417 kts 199°
2026-05-05 16:10 50.05104 13.30076 34864 ft 417 kts 199°
2026-05-05 16:11 50.02332 13.28730 34185 ft 417 kts 199°
2026-05-05 16:11 49.93128 13.24263 33767 ft 418 kts 199°
2026-05-05 16:12 49.91252 13.23353 33760 ft 418 kts 199°
2026-05-05 16:12 49.85689 13.20660 33432 ft 419 kts 199°
2026-05-05 16:13 49.77347 13.16649 31910 ft 422 kts 199°
2026-05-05 16:13 49.74496 13.15279 31413 ft 424 kts 199°
2026-05-05 16:13 49.71706 13.13940 30938 ft 426 kts 199°
2026-05-05 16:14 49.66054 13.11238 29989 ft 423 kts 198°
2026-05-05 16:14 49.60461 13.08566 28943 ft 418 kts 198°
2026-05-05 16:15 49.55011 13.05664 27856 ft 411 kts 202°
2026-05-05 16:15 49.49751 13.02256 26316 ft 410 kts 204°
2026-05-05 16:16 49.44534 12.98780 24831 ft 407 kts 203°
2026-05-05 16:16 49.39352 12.95354 23422 ft 404 kts 202°
2026-05-05 16:17 49.34193 12.92001 21826 ft 402 kts 202°
2026-05-05 16:17 49.31625 12.90339 21075 ft 400 kts 202°
2026-05-05 16:18 49.26530 12.87038 19726 ft 394 kts 202°
2026-05-05 16:18 49.24014 12.85408 19074 ft 391 kts 202°
2026-05-05 16:18 49.19043 12.82156 17803 ft 385 kts 202°
2026-05-05 16:19 49.16641 12.80526 17636 ft 370 kts 207°
2026-05-05 16:19 49.14480 12.78545 17437 ft 358 kts 211°
2026-05-05 16:19 49.10277 12.74594 16859 ft 353 kts 210°
2026-05-05 16:20 49.06121 12.70685 15941 ft 349 kts 210°
2026-05-05 16:20 49.02001 12.66815 15026 ft 348 kts 211°
2026-05-05 16:21 48.97909 12.62984 14064 ft 347 kts 211°
2026-05-05 16:22 48.91789 12.57243 12512 ft 343 kts 211°
2026-05-05 16:22 48.87757 12.53469 11441 ft 338 kts 211°
2026-05-05 16:23 48.83778 12.49756 10401 ft 333 kts 211°
2026-05-05 16:23 48.81815 12.47934 9902 ft 330 kts 211°
2026-05-05 16:23 48.78026 12.44414 9508 ft 306 kts 211°
2026-05-05 16:24 48.76246 12.42760 9375 ft 294 kts 211°
2026-05-05 16:24 48.74536 12.41172 9244 ft 282 kts 211°
2026-05-05 16:24 48.71238 12.38130 8830 ft 276 kts 211°
2026-05-05 16:25 48.69586 12.36653 8484 ft 276 kts 210°
2026-05-05 16:25 48.66301 12.33752 7842 ft 270 kts 210°
2026-05-05 16:25 48.64694 12.32339 7512 ft 261 kts 210°
2026-05-05 16:26 48.61556 12.29569 6879 ft 261 kts 210°
2026-05-05 16:26 48.58427 12.26808 6302 ft 259 kts 211°
2026-05-05 16:27 48.56870 12.25435 6137 ft 260 kts 211°
2026-05-05 16:27 48.55308 12.24058 5955 ft 260 kts 211°
2026-05-05 16:27 48.53766 12.22700 5785 ft 259 kts 211°
2026-05-05 16:27 48.52174 12.21298 5606 ft 263 kts 211°
2026-05-05 16:28 48.50606 12.19921 5432 ft 256 kts 211°
2026-05-05 16:28 48.49118 12.18613 5267 ft 246 kts 211°
2026-05-05 16:28 48.47671 12.17344 5098 ft 236 kts 211°
2026-05-05 16:28 48.46269 12.16113 4942 ft 231 kts 212°
2026-05-05 16:29 48.44870 12.14882 4943 ft 235 kts 213°
2026-05-05 16:29 48.43457 12.13643 4939 ft 234 kts 212°
2026-05-05 16:29 48.42043 12.12405 4939 ft 235 kts 212°
2026-05-05 16:29 48.40622 12.11160 4942 ft 237 kts 212°
2026-05-05 16:30 48.39202 12.09916 4942 ft 237 kts 212°
2026-05-05 16:30 48.37814 12.08591 4941 ft 236 kts 222°
2026-05-05 16:30 48.36770 12.06716 4826 ft 233 kts 244°
2026-05-05 16:30 48.36279 12.04447 4586 ft 226 kts 264°
2026-05-05 16:31 48.36104 12.02111 4310 ft 225 kts 265°
2026-05-05 16:31 48.35935 11.99784 4018 ft 224 kts 265°
2026-05-05 16:31 48.35765 11.97495 3742 ft 219 kts 265°
2026-05-05 16:31 48.35599 11.95280 3445 ft 206 kts 265°
2026-05-05 16:32 48.35447 11.93267 3188 ft 183 kts 265°
2026-05-05 16:32 48.35310 11.91450 2955 ft 168 kts 266°
2026-05-05 16:32 48.35183 11.89761 2752 ft 157 kts 265°
2026-05-05 16:32 48.35063 11.88181 2560 ft 147 kts 265°
2026-05-05 16:33 48.34951 11.86678 2353 ft 144 kts 265°
2026-05-05 16:33 48.34844 11.85205 2152 ft 140 kts 265°
2026-05-05 16:33 48.34726 11.83746 1939 ft 143 kts 263°
2026-05-05 16:33 48.34605 11.82247 1736 ft 146 kts 262°
2026-05-05 16:34 48.34492 11.80722 1567 ft 148 kts 263°
2026-05-05 16:34 48.34389 11.79223 1471 ft 136 kts 263°
2026-05-05 16:34 48.34288 11.77993 1467 ft 95 kts 263°
2026-05-05 16:34 48.34233 11.77251 1460 ft 51 kts 263°
2026-05-05 16:35 48.34193 11.76756 1468 ft 46 kts 263°
2026-05-05 16:35 48.34218 11.76361 1470 ft 34 kts 291°
2026-05-05 16:35 48.34298 11.76082 1465 ft 18 kts 293°
2026-05-05 16:35 48.34333 11.75960 1465 ft 11 kts 294°
2026-05-05 16:36 48.34368 11.75841 1463 ft 14 kts 292°
2026-05-05 16:36 48.34427 11.75777 1461 ft 11 kts 350°
2026-05-05 16:36 48.34502 11.75818 1459 ft 12 kts 68°
2026-05-05 16:36 48.34516 11.75986 1464 ft 24 kts 83°
2026-05-05 16:37 48.34536 11.76249 1466 ft 26 kts 83°
2026-05-05 16:37 48.34557 11.76528 1463 ft 27 kts 83°
2026-05-05 16:37 48.34579 11.76813 1464 ft 28 kts 83°
2026-05-05 16:37 48.34601 11.77107 1466 ft 27 kts 83°
2026-05-05 16:38 48.34623 11.77401 1461 ft 28 kts 84°
2026-05-05 16:38 48.34647 11.77697 1461 ft 29 kts 84°
2026-05-05 16:38 48.34666 11.77958 1466 ft 24 kts 83°
2026-05-05 16:38 48.34687 11.78218 1467 ft 26 kts 84°
2026-05-05 16:39 48.34708 11.78492 1467 ft 27 kts 83°
2026-05-05 16:39 48.34729 11.78777 1467 ft 28 kts 84°
2026-05-05 16:39 48.34752 11.79072 1467 ft 28 kts 83°
2026-05-05 16:39 48.34769 11.79288 1464 ft 18 kts 83°
2026-05-05 16:40 48.34782 11.79472 1459 ft 13 kts 83°
2026-05-05 16:40 48.34799 11.79542 1457 ft 0 kts 52°
2026-05-05 16:40 48.34840 11.79561 1467 ft 13 kts 359°
2026-05-05 16:40 48.34888 11.79553 1461 ft 2 kts 352°
2026-05-05 16:41 48.34904 11.79550 1465 ft 6 kts 353°
2026-05-05 16:41 48.34962 11.79542 1467 ft 9 kts 358°
2026-05-05 16:41 48.35019 11.79535 1464 ft 8 kts
2026-05-05 16:41 48.35048 11.79553 1466 ft 2 kts 62°
2026-05-05 16:42 48.35063 11.79651 1467 ft 6 kts 83°
2026-05-05 16:42 48.35067 11.79661 1467 ft 1 kts 46°
2026-05-05 16:42 48.35122 11.79649 1459 ft 11 kts 353°
2026-05-05 16:42 48.35193 11.79637 1464 ft 10 kts 353°
2026-05-05 16:43 48.35243 11.79628 1464 ft 0 kts 353°
2026-05-05 16:43 48.35265 11.79624 1464 ft 1 kts 352°
2026-05-05 16:43 48.35289 11.79620 1467 ft 13 kts 355°
2026-05-05 16:43 48.35395 11.79600 1465 ft 15 kts 353°
2026-05-05 16:44 48.35477 11.79588 1458 ft 11 kts 354°
2026-05-05 16:44 48.35552 11.79576 1462 ft 13 kts 354°
2026-05-05 16:44 48.35614 11.79565 1463 ft 5 kts 353°
2026-05-05 16:44 48.35646 11.79559 1459 ft 4 kts 353°
2026-05-05 16:45 48.35682 11.79603 1464 ft 11 kts 75°
2026-05-05 16:45 48.35695 11.79688 1464 ft 0 kts 77°
2026-05-05 16:45 48.35698 11.79705 1464 ft 3 kts 77°
2026-05-05 16:45 48.35699 11.79712 1465 ft 0 kts 77°